Probability
0 0 0 0 0 0 0 0 0 0 0 0 0 0 0 0 0 0 0 0 0 0 0 0 0 0 0 0 0 0 0 0 0 0 0 0 0 0 0 0 0 0 0 0
0 0 0 0 0 0 0 0 0 0 0 0 0 0 0 0 0 0 0 0 0 0 0 0 0 0 0 0 0 0 0 0 0 0 0 0 0 0 0 0 0 0 0 0
0 0 0 0 0 0 0 0 0 0 0 0 0 0 0 0 0 0 0 0 0 0 0 0 0 0 0 0 0 0 0 0 0 0 0 0 0 0 0 0 0 0 0 0
0 0 0 0 0 0 0 0 0 0 0 0 0 0 0 0 0 0 0 0 0 0 0 0 0 0 0 0 0 0 0 0 0 0 0 0 0 0 0 0 0 0 0 0
0 0 0 0 0 0 0 0 0 0 0 0 0 0 0 0 0 0 0 0 0 0 0 0 0 0 0 0 0 0 0 0 0 0 0 0 0 0 0 0 0 0 0 0
0 0 0 0 0 0 0 0 0 0 0 0 0 0 0 0 0 0 0 0 0 0 0 0 0 0 0 0 0 0 0 0 0 0 0 0 0 0 0 0 0 0 0 0
0 0 0 0 0 0 0 0 0 0 0 0 0 0 0 0 0 0 0 0 0 0 0 0 0 0 0 0 0 0 0 0 0 0 0 0 0 0 0 0 0 0 0 0
0 0 0 0 0 0 0 0 0 0 0 0 0 0 0 0 0 0 0 0 0 0 0 0 0 0 0 0 0 0 0 0 0 0 0 0 0 0 0 0 0 0 0 0
0 0 0 0 0 0 0 0 0 0 0 0 0 0 0 0 0 0 0 0 0 0 0 0 0 0 0 0 0 0 0 0 0 0 0 0 0 0 0 0 0 0 0 0
0 0 0 0 0 0 0 0 0 0 0 0 0 0 0 0 0 0 0 0 0 0 0 0 0 0 0 0 0 0 0 0 0 0 0 0 0 0 0 0 0 0 0 0
0 0 0 0 0 0 0 0 0 0 0 0 0 0 0 0 0 0 0 0 0 0 0 0 0 0 0 0 0 0 0 0 0 0 0 0 0 0 0 0 0 0 0 0
0 0 0 0 0 0 0 0 0 0 0 0 0 0 0 0 0 0 0 0 0 0 0 0 0 0 0 0 0 0 0 0 0 0 0 0 0 0 0 0 0 0 0 0
0 0 0 0 0 0 0 0 0 0 0 0 0 0 0 0 0 0 0 0 0 0 0 0 0 0 0 0 0 0 0 0 0 0 0 0 0 0 0 0 0 0 0 0
0 0 0 0 0 0 0 0 0 0 0 0 0 0 0 0 0 0 0 0 0 0 0 0 0 0 0 0 0 0 0 0 0 0 0 0 0 0 0 0 0 0 0 0
0 0 0 0 0 0 0 0 0 0 0 0 0 0 0 0 0 0 0 0 0 0 0 0 0 0 0 0 0 0 0 0 0 0 0 0 0 0 0 0 0 0 0 0
0 0 0 0 0 0 0 0 0 0 0 0 0 0 0 0 0 0 0 0 0 0 0 0 0 0 0 0 0 0 0 0 0 0 0 0 0 0 0 0 0 0 0 0
0 0 0 0 0 0 0 0 0 0 0 0 0 0 0 0 0 0 0 0 0 0 0 0 0 0 0 0 0 0 0 0 0 0 0 0 0 0 0 0 0 0 0 0
0 0 0 0 0 0 0 0 0 0 0 0 0 0 0 0 0 0 0 0 0 0 0 0 0 0 0 0 0 0 0 0 0 0 0 0 0 0 0 0 0 0 0 0
0 0 0 0 0 0 0 0 0 0 0 0 0 0 0 0 0 0 0 0 0 0 0 0 0 0 0 0 0 0 0 0 0 0 0 0 0 0 0 0 0 0 0 0
0 0 0 0 0 0 0 0 0 0 0 0 0 0 0 0 0 0 0 0 0 0 0 0 0 0 0 0 0 0 0 0 0 0 0 0 0 0 0 0 0 0 0 0
0 0 0 0 0 0 0 0 0 0 0 0 0 0 0 0 0 0 0 0 0 0 0 0 0 0 0 0 0 0 0 0 0 0 0 0 0 0 0 0 0 0 0 0
0 0 0 0 0 0 0 0 0 0 0 0 0 0 0 0 0 0 0 0 0 0 0 0 0 0 0 0 0 0 0 0 0 0 0 0 0 0 0 0 0 0 0 0
0 0 0 0 0 0 0 0 0 0 0 0 0 0 0 0 0 0 0 0 0 0 0 0 0 0 0 0 0 0 0 0 0 0 0 0 0 0 0 0 0 0 0 0
0 0 0 0 0 0 0 0 0 0 0 0 0 0 0 0 0 0 0 0 0 0 0 0 0 0 0 0 0 0 0 0 0 0 0 0 0 0 0 0 0 0 0 0
0 0 0 0 0 0 0 0 0 0 0 0 0 0 0 0 0 0 0 0 0 0 0 0 0 0 0 0 0 0 0 0 0 0 0 0 0 0 0 0 0 0 0 0
0 0 0 0 0 0 0 0 0 0 0 0 0 0 0 0 0 0 0 0 0 0 0 0 0 0 0 0 0 0 0 0 0 0 0 0 0 0 0 0 0 0 0 0
0 0 0 0 0 0 0 0 0 0 0 0 0 0 0 0 0 0 0 0 0 0 0 0 0 0 0 0 0 0 0 0 0 0 0 0 0 0 0 0 0 0 0 0
Height
5590 5590 5590 5591 5592 5592 5592 5592 5593 5594 5594 5594 5592 5591 5590 5589 5588 5587 5586 5585 5583 5582 5581 5580 5580 5579 5579 5578 5577 5577 5576 5575 5574 5573 5572 5571 5570 5568 5567 5565 5563 5561 5559 5557
5583 5584 5583 5584 5585 5585 5585 5586 5586 5586 5587 5586 5584 5583 5582 5582 5581 5580 5579 5577 5576 5575 5573 5572 5572 5571 5571 5570 5569 5568 5567 5566 5565 5564 5563 5561 5560 5558 5556 5554 5552 5549 5547 5545
5576 5577 5576 5577 5580 5579 5579 5579 5579 5579 5581 5578 5577 5576 5575 5574 5573 5572 5571 5570 5568 5567 5566 5565 5564 5563 5563 5562 5561 5560 5559 5558 5556 5555 5553 5552 5550 5548 5545 5543 5541 5538 5536 5534
5568 5569 5568 5574 5573 5572 5571 5572 5572 5571 5571 5571 5570 5569 5567 5567 5566 5565 5564 5562 5561 5560 5559 5558 5556 5556 5555 5554 5553 5552 5551 5549 5548 5546 5544 5542 5540 5538 5535 5532 5530 5527 5525 5523
5560 5560 5561 5565 5565 5564 5564 5565 5565 5564 5564 5563 5562 5561 5561 5559 5558 5557 5556 5555 5554 5553 5551 5550 5549 5548 5547 5546 5545 5544 5542 5541 5539 5537 5535 5533 5530 5528 5525 5522 5520 5517 5515 5512
5553 5552 5554 5558 5558 5556 5557 5557 5557 5556 5556 5555 5554 5554 5555 5552 5551 5550 5549 5548 5546 5545 5544 5543 5541 5540 5539 5538 5537 5536 5534 5532 5530 5528 5526 5524 5522 5519 5516 5513 5511 5508 5505 5503
5545 5545 5547 5550 5549 5549 5551 5552 5550 5549 5548 5548 5547 5547 5546 5545 5544 5542 5541 5540 5539 5537 5536 5535 5534 5533 5531 5530 5529 5528 5526 5524 5522 5520 5519 5516 5514 5511 5508 5505 5503 5500 5497 5495
5538 5539 5543 5542 5542 5543 5543 5542 5542 5541 5541 5540 5540 5539 5538 5537 5536 5535 5534 5533 5531 5530 5528 5527 5526 5525 5524 5522 5521 5519 5518 5517 5515 5513 5511 5509 5507 5504 5501 5498 5495 5492 5490 5487
5533 5535 5535 5534 5535 5535 5535 5535 5534 5534 5534 5533 5532 5532 5531 5530 5529 5528 5527 5525 5524 5523 5522 5520 5519 5517 5516 5514 5513 5511 5510 5509 5508 5507 5505 5503 5501 5498 5495 5491 5489 5486 5483 5480
5525 5527 5527 5527 5527 5527 5527 5527 5527 5527 5527 5526 5525 5524 5524 5523 5522 5520 5519 5518 5517 5516 5515 5513 5512 5510 5509 5507 5506 5505 5504 5503 5502 5500 5499 5497 5495 5492 5489 5486 5483 5480 5477 5474
5518 5520 5519 5520 5520 5520 5520 5520 5520 5520 5519 5518 5518 5517 5516 5515 5514 5513 5512 5511 5510 5509 5508 5507 5505 5504 5502 5501 5499 5498 5497 5496 5495 5494 5493 5491 5489 5486 5483 5480 5477 5475 5472 5469
5512 5513 5512 5513 5512 5512 5513 5513 5513 5513 5512 5511 5510 5509 5508 5507 5506 5505 5505 5504 5503 5502 5501 5500 5499 5497 5496 5495 5493 5492 5491 5490 5489 5488 5487 5485 5483 5480 5477 5474 5471 5469 5466 5463
5506 5505 5505 5505 5505 5505 5506 5506 5506 5506 5505 5504 5503 5502 5501 5500 5499 5499 5498 5497 5496 5495 5494 5494 5493 5492 5490 5489 5488 5487 5486 5485 5483 5482 5481 5479 5477 5475 5472 5470 5466 5464 5461 5458
5499 5498 5498 5498 5498 5499 5499 5499 5499 5499 5498 5497 5496 5495 5494 5494 5493 5492 5491 5490 5490 5489 5488 5488 5487 5486 5485 5484 5483 5482 5481 5479 5478 5477 5475 5473 5471 5469 5467 5465 5462 5459 5456 5453
5492 5492 5492 5492 5492 5492 5492 5492 5492 5492 5491 5490 5489 5488 5488 5487 5487 5486 5485 5485 5484 5483 5483 5482 5482 5481 5480 5479 5478 5477 5476 5474 5473 5472 5470 5468 5466 5464 5462 5459 5457 5454 5451 5449
5486 5485 5485 5486 5486 5486 5486 5486 5485 5485 5484 5483 5482 5482 5481 5481 5481 5480 5480 5479 5479 5478 5478 5478 5477 5477 5476 5475 5474 5473 5471 5470 5468 5467 5465 5463 5461 5459 5457 5455 5452 5450 5447 5445
5480 5480 5480 5480 5480 5480 5480 5479 5479 5478 5477 5477 5476 5476 5476 5475 5475 5475 5475 5474 5474 5474 5474 5473 5473 5472 5472 5471 5470 5468 5467 5465 5464 5462 5461 5459 5457 5454 5452 5450 5448 5446 5443 5441
5474 5474 5475 5475 5475 5474 5474 5473 5472 5472 5472 5471 5471 5471 5471 5470 5470 5470 5470 5470 5469 5469 5469 5469 5469 5468 5467 5466 5465 5464 5463 5461 5460 5458 5456 5454 5452 5450 5448 5446 5444 5442 5440 5437
5469 5469 5469 5469 5469 5469 5468 5468 5468 5467 5467 5467 5466 5466 5466 5466 5466 5465 5465 5465 5465 5465 5465 5465 5465 5464 5464 5463 5461 5460 5459 5457 5456 5454 5452 5450 5448 5446 5444 5442 5440 5438 5436 5434
5464 5464 5464 5464 5464 5464 5464 5463 5463 5463 5462 5462 5462 5462 5461 5461 5461 5461 5461 5461 5461 5461 5461 5461 5461 5460 5460 5459 5457 5456 5455 5454 5452 5450 5449 5447 5445 5443 5440 5439 5437 5435 5432 5430
5460 5460 5460 5460 5460 5460 5460 5459 5459 5459 5459 5458 5458 5457 5457 5457 5457 5457 5457 5457 5457 5457 5457 5457 5457 5456 5456 5455 5454 5453 5452 5450 5449 5447 5445 5443 5441 5439 5437 5435 5433 5431 5429 5427
5455 5455 5455 5455 5456 5456 5456 5455 5455 5455 5455 5454 5454 5454 5454 5454 5454 5454 5454 5454 5453 5453 5453 5453 5453 5452 5452 5451 5450 5449 5448 5447 5445 5443 5442 5440 5437 5435 5433 5431 5429 5428 5426 5424
5451 5451 5451 5451 5452 5452 5452 5452 5451 5451 5451 5450 5450 5450 5450 5450 5450 5450 5450 5450 5449 5449 5449 5449 5449 5449 5448 5448 5447 5446 5445 5443 5442 5440 5438 5436 5434 5432 5430 5428 5426 5424 5423 5421
5447 5447 5447 5447 5447 5448 5448 5448 5448 5447 5447 5447 5446 5447 5447 5447 5447 5446 5446 5446 5446 5446 5446 5446 5446 5445 5445 5444 5443 5442 5441 5439 5438 5436 5434 5432 5430 5428 5426 5425 5423 5422 5420 5418
5443 5442 5442 5443 5443 5443 5443 5444 5444 5443 5443 5443 5443 5443 5443 5443 5443 5443 5443 5443 5443 5443 5442 5442 5442 5442 5441 5440 5439 5438 5437 5435 5434 5432 5430 5429 5427 5425 5423 5422 5420 5419 5417 5416
5438 5438 5438 5438 5438 5439 5439 5439 5439 5439 5439 5439 5439 5439 5439 5439 5439 5439 5439 5439 5439 5439 5439 5439 5438 5438 5437 5436 5435 5434 5433 5431 5430 5428 5427 5425 5424 5422 5420 5419 5417 5416 5415 5413
5434 5433 5433 5434 5434 5434 5435 5435 5435 5435 5435 5435 5435 5435 5435 5435 5436 5436 5436 5436 5436 5435 5435 5435 5434 5434 5433 5432 5431 5430 5429 5427 5426 5424 5423 5422 5420 5419 5417 5416 5415 5413 5412 5411
Wind_Speed
26 26 27 26 26 26 27 28 28 27 27 26 27 28 29 29 28 28 28 28 28 29 28 29 30 30 30 31 31 32 32 33 33 34 35 36 37 38 40 41 41 42 42 43
26 26 27 27 26 27 27 28 28 28 26 26 27 28 28 28 28 28 28 28 28 28 28 28 28 28 28 28 29 29 30 31 32 33 33 34 36 37 38 39 39 40 41 41
28 27 28 28 26 27 27 27 28 28 26 27 27 28 27 27 27 27 28 28 27 27 27 27 27 27 27 27 28 28 29 30 31 32 33 34 35 35 36 37 37 38 38 38
29 29 29 28 27 27 27 28 28 28 27 27 27 27 28 27 27 27 27 27 27 26 26 27 26 26 27 28 28 28 29 29 30 31 32 33 34 34 34 35 35 35 35 36
28 29 29 27 26 26 27 27 27 28 27 27 27 27 27 27 27 27 27 26 26 26 26 27 27 27 28 28 28 28 28 29 30 30 31 31 32 32 32 33 33 33 33 33
27 28 28 25 25 26 26 26 26 27 27 27 27 27 26 27 27 27 27 26 26 27 27 26 27 27 28 28 28 28 28 29 29 29 29 29 29 29 29 30 30 30 31 31
26 27 27 25 25 25 25 25 25 25 26 26 26 27 27 27 27 27 26 26 26 26 26 26 26 27 27 27 28 28 28 28 27 27 27 27 27 27 27 27 27 28 28 29
26 27 26 25 24 24 25 24 24 24 24 25 25 25 26 27 27 26 26 26 25 25 26 26 26 26 26 27 27 26 26 25 25 25 25 25 25 25 26 26 26 26 26 26
25 26 26 25 25 25 24 24 24 24 24 24 24 24 25 26 26 26 25 25 25 25 25 25 25 25 25 25 25 24 24 24 24 23 23 23 23 24 25 25 24 24 24 24
25 25 26 26 25 25 25 24 24 24 24 24 24 25 25 25 25 25 25 25 24 24 24 24 24 24 23 23 22 22 22 22 22 22 22 22 22 23 23 23 23 23 24 24
23 23 24 25 26 25 25 24 24 24 24 24 25 25 25 25 25 25 25 24 24 24 23 23 22 22 22 21 21 21 21 20 21 21 21 22 22 23 23 23 23 23 23 23
22 22 23 23 24 25 25 24 24 24 23 24 24 24 24 24 23 23 24 23 23 23 22 21 21 20 19 19 19 19 19 20 21 21 21 21 21 22 23 23 22 22 22 22
22 22 22 22 22 23 23 23 23 23 23 23 23 22 22 22 22 21 22 22 21 21 20 19 18 18 18 18 18 17 18 18 19 19 20 20 21 21 21 21 21 21 21 21
21 21 20 21 21 21 21 22 22 22 22 22 21 21 20 20 20 20 20 20 19 18 17 17 16 17 17 17 17 17 18 18 18 18 19 19 19 20 19 19 20 20 20 20
21 21 20 20 20 20 20 21 21 21 21 21 20 19 20 20 19 19 19 18 17 16 16 15 15 15 15 16 16 17 17 17 17 18 18 18 18 19 19 19 19 19 18 18
20 20 19 19 18 19 20 21 21 20 19 19 19 19 19 18 18 18 17 17 16 15 14 14 14 14 14 15 15 16 16 16 17 17 17 18 18 18 18 18 18 17 17 16
20 19 19 18 18 19 19 20 19 18 18 18 18 17 17 17 17 17 16 16 15 14 13 13 13 13 13 14 15 15 15 16 16 16 16 17 17 17 17 17 16 16 15 15
18 19 18 18 17 18 18 18 17 17 16 17 16 16 16 16 16 16 16 15 14 13 13 13 13 13 13 14 14 14 14 15 15 15 15 16 16 16 16 16 15 15 15 15
17 17 17 17 17 17 17 17 16 15 15 16 16 15 15 15 15 15 15 14 13 13 12 12 12 13 13 13 13 13 13 13 14 14 15 15 15 16 16 15 15 14 15 15
15 15 15 15 15 15 15 15 15 15 15 15 15 15 15 14 14 14 13 13 12 12 12 12 12 12 12 12 12 12 12 13 13 14 14 15 15 15 15 15 15 15 15 15
14 14 14 14 15 14 14 14 15 15 15 15 14 14 14 14 13 13 13 13 12 12 12 11 11 11 11 11 11 12 12 12 13 14 14 15 15 15 15 14 14 14 14 14
14 14 14 14 14 14 14 14 14 14 14 14 14 13 13 13 13 13 12 12 12 12 11 11 11 11 11 11 11 11 12 12 13 14 14 15 15 15 14 14 13 13 13 13
15 15 14 14 14 15 15 14 14 14 14 14 14 13 13 13 13 12 12 11 11 11 11 10 11 11 11 11 11 12 12 13 14 14 15 15 15 14 13 13 12 12 13 12
15 15 15 15 15 15 15 15 14 14 14 14 14 14 13 13 12 12 11 10 10 10 11 11 11 11 11 11 11 12 13 14 14 15 15 15 14 14 13 12 12 12 12 11
15 15 16 16 16 16 16 15 15 14 14 13 13 13 13 13 12 11 11 10 10 10 11 11 11 11 11 11 12 12 13 14 14 14 14 14 14 13 13 12 12 11 11 11
15 15 15 15 15 16 15 15 14 14 13 13 12 12 12 12 12 11 11 11 11 11 11 11 11 12 12 12 12 13 14 14 14 14 14 14 14 13 13 12 12 11 11 10
15 15 15 15 15 15 14 14 14 14 13 13 12 12 12 12 12 12 12 12 12 12 12 11 12 12 12 12 13 13 14 14 14 13 13 13 13 13 12 12 11 10 10 9
Wind_Direction
266 265 264 264 265 267 269 271 273 275 277 279 279 280 280 281 282 282 281 281 281 279 277 277 277 276 276 276 276 276 277 276 276 276 276 276 277 278 279 281 281 281 280 280
265 265 265 266 266 268 270 273 274 275 275 277 279 281 281 282 282 281 280 281 281 281 279 278 277 277 278 277 278 278 279 278 278 278 278 279 280 281 282 282 283 283 282 282
266 265 265 267 269 271 272 272 274 275 276 276 278 281 281 281 281 282 281 281 281 281 279 278 277 278 278 279 279 280 281 281 280 281 282 282 283 284 284 284 284 284 284 282
268 266 267 270 272 273 273 274 275 276 276 277 278 280 281 281 282 282 282 280 281 281 279 279 279 279 280 280 281 282 283 283 283 284 285 286 286 286 287 286 286 286 285 284
268 268 268 269 272 274 274 274 275 275 275 276 278 279 281 282 282 282 281 281 281 281 281 281 280 280 280 281 282 284 284 285 285 286 287 288 288 288 288 289 288 287 286 285
268 270 271 272 272 274 275 275 274 274 275 276 278 278 279 280 282 283 281 281 281 281 282 281 281 281 281 282 283 285 286 286 287 288 289 290 290 290 291 292 291 290 289 288
266 268 270 272 274 276 276 277 276 276 277 277 278 279 279 280 282 284 283 283 282 281 280 281 282 282 283 283 284 285 286 287 289 289 290 291 293 294 295 295 296 295 293 291
265 267 269 271 272 274 277 276 276 277 278 278 278 278 279 280 282 283 283 283 283 283 282 282 283 284 284 285 285 285 285 286 287 289 290 293 295 297 298 298 298 298 296 294
266 268 269 269 270 273 274 275 275 276 277 279 278 278 280 281 282 283 283 283 283 283 284 284 284 285 286 286 286 286 286 285 285 288 291 295 297 300 301 301 300 300 300 299
267 268 269 268 269 271 273 274 274 275 277 278 278 279 281 281 281 283 284 284 282 283 284 285 286 287 287 287 286 285 283 283 285 288 292 296 298 301 304 304 302 302 304 303
268 269 270 270 270 271 272 273 273 275 277 278 278 280 281 281 281 282 282 282 280 280 282 284 286 288 288 288 286 285 283 284 286 288 291 295 299 301 304 305 304 305 305 306
272 271 272 271 270 270 271 272 274 276 279 279 279 279 280 280 281 281 281 282 280 279 280 282 284 285 287 289 288 287 286 287 289 290 294 297 299 302 304 306 307 306 307 308
273 272 272 271 270 270 271 271 273 276 279 280 279 279 280 281 282 283 283 282 279 279 279 281 282 283 285 287 288 288 289 290 291 292 296 298 300 302 304 306 308 308 307 309
272 271 270 269 270 270 271 272 274 276 278 279 278 277 279 282 283 284 284 283 281 278 277 277 279 282 284 287 288 288 290 292 294 295 298 300 301 303 304 307 309 310 309 309
272 271 270 269 269 270 271 272 275 277 278 278 278 278 280 282 282 282 283 282 280 277 276 276 278 282 285 288 290 291 293 294 294 296 298 300 301 303 304 306 310 311 310 310
273 272 271 270 270 271 273 274 275 276 277 278 278 279 281 282 281 282 282 280 278 276 275 276 279 283 288 290 291 293 294 296 297 297 298 300 302 305 306 307 309 311 311 311
274 272 271 271 270 271 273 275 275 274 276 277 276 277 280 281 281 280 279 278 275 273 272 275 278 283 289 291 292 293 294 297 299 300 301 302 303 305 307 308 309 310 311 312
274 271 269 269 271 271 271 274 276 276 276 275 275 278 280 281 280 277 276 276 274 272 272 274 276 281 287 291 294 294 296 298 300 300 302 305 306 307 308 309 310 310 312 312
274 272 271 270 271 271 271 273 275 276 277 276 275 276 278 278 278 276 274 274 272 270 271 273 275 280 287 292 295 296 298 300 302 303 304 306 307 308 308 309 310 311 312 313
274 272 271 271 271 271 270 270 273 276 277 278 277 276 276 276 275 274 272 272 271 270 272 274 276 279 284 290 295 298 300 303 305 307 307 308 309 309 308 309 309 310 313 314
274 273 272 269 268 269 271 272 273 275 277 278 278 278 275 272 271 273 273 272 272 271 272 271 272 277 283 289 295 299 301 304 308 310 310 310 310 309 308 307 308 310 312 314
275 272 270 267 265 266 271 275 276 275 277 277 277 276 274 271 272 274 276 273 270 269 268 267 271 276 282 289 295 299 302 305 308 310 312 314 313 311 309 307 308 310 312 314
276 271 268 266 265 266 269 274 277 277 276 275 272 273 273 271 271 272 272 272 269 266 265 267 271 276 283 290 295 298 301 304 308 310 312 313 313 311 309 308 310 312 313 314
281 275 269 266 265 266 268 269 273 276 277 276 272 271 271 270 268 270 272 270 270 267 267 269 272 279 284 288 293 297 301 304 307 310 312 312 313 312 310 309 311 313 315 315
281 277 273 268 265 265 267 268 269 271 275 275 273 272 270 268 268 271 270 268 267 271 272 272 275 280 284 289 295 299 302 304 305 308 310 311 312 312 311 310 310 311 314 316
280 277 274 270 267 265 265 266 267 269 271 274 274 272 268 266 267 266 267 268 269 273 276 277 279 282 286 290 295 299 302 304 305 306 308 309 309 310 310 310 310 309 311 314
280 276 272 269 267 267 266 265 265 267 270 272 271 267 265 265 265 265 266 268 270 274 277 280 281 283 287 291 295 298 302 305 305 305 306 307 308 309 310 309 309 310 311 312